Location: Borotín
(49.5055°N, 14.6142°E)
Time: 07:49:07
(UTC+00:00)

Cosmos 1271 Rocket - Pass Details

Date: 27 May 2022
Orbit: 495 x 539 km, 81.2° (Epoch: 28 June)

Event Time Altitude Azimuth Distance (km) Brightness Sun altitude
Rises 02:10:26 0° 335° (NNW) 2,628 6.6 -7.4°
Reaches altitude 10° 02:12:56 10° 319° (NW) 1,745 5.4 -7.2°
Maximum altitude 02:15:48 21° 270° (W) 1,220 4.2 -6.8°
Drops below altitude 10° 02:18:42 10° 221° (SW) 1,753 4.7 -6.5°
Enters shadow 02:19:13 - 217° (SW) 1,922 4.9 -6.4°
